This demonstration page uses our WeatherBlox Daily Observations layout. Learn more.

Left ArrowRight Arrow

39.29038, -76.61219

Hourly Observations for November 10, 2020

Temp ( °F °C ) Dew Point ( °F °C ) Humidity (%) Winds ( mph kmh ) Pressure ( in mb ) Visibility ( mi km ) Precip ( " mm )
12:54 am 00:54 Clear 53 11.7 50 10 89 89 Calm 30.25 1024 10 16 0.00 0.00
1:54 am 01:54 Clear 51 10.6 49 9.4 92 92 Calm 30.24 1024 10 16 0.00 0.00
2:54 am 02:54 Mostly Clear 52 11.1 49 9.4 89 89 Calm 30.24 1024 9 14 0.00 0.00
3:54 am 03:54 Mostly Clear 52 11.1 49 9.4 89 89 Calm 30.23 1024 9 14 0.00 0.00
4:54 am 04:54 Mostly Clear 49 9.4 47 8.3 93 93 Calm 30.23 1024 9 14 0.00 0.00
5:54 am 05:54 Mostly Clear 48 8.9 46 7.8 93 93 Calm 30.23 1024 10 16 0.00 0.00
6:54 am 06:54 Partly Cloudy with Fog 50 10 47 8.3 89 89 Calm 30.23 1024 8 13 0.00 0.00
7:54 am 07:54 Mostly Sunny 55 12.8 51 10.6 87 87 Calm 30.24 1024 7 11 0.00 0.00
8:54 am 08:54 Mostly Sunny 61 16.1 54 12.2 78 78 Calm 30.24 1024 10 16 0.00 0.00
9:54 am 09:54 Mostly Sunny 68 20 57 13.9 68 68 VRB 3 6 30.23 1024 10 16 0.00 0.00
10:54 am 10:54 Mostly Sunny 74 23.3 60 15.6 62 62 S 6 9 30.21 1023 10 16 0.00 0.00
11:54 am 11:54 Partly Cloudy 77 25 58 14.4 52 52 SSW 10 17 30.17 1022 10 16 0.00 0.00
12:54 pm 12:54 Partly Cloudy 77 25 58 14.4 52 52 SW 9 15 30.14 1021 10 16 0.00 0.00
1:54 pm 13:54 Partly Cloudy 78 25.6 57 13.9 48 48 SW 13 20 30.12 1020 10 16 0.00 0.00
2:54 pm 14:54 Partly Cloudy 77 25 55 12.8 47 47 VRB 6 9 30.11 1020 10 16 0.00 0.00
3:54 pm 15:54 Partly Cloudy 76 24.4 55 12.8 48 48 VRB 6 9 30.11 1020 10 16 0.00 0.00
4:54 pm 16:54 Partly Cloudy 73 22.8 58 14.4 59 59 SE 9 15 30.10 1019 10 16 0.00 0.00
5:54 pm 17:54 Mostly Clear 69 20.6 60 15.6 73 73 SE 6 9 30.11 1020 10 16 0.00 0.00
6:54 pm 18:54 Mostly Clear 67 19.4 60 15.6 79 79 ESE 5 7 30.11 1020 10 16 0.00 0.00
7:54 pm 19:54 Clear 66 18.9 60 15.6 81 81 SE 3 6 30.11 1020 10 16 0.00 0.00
8:54 pm 20:54 Clear 67 19.4 60 15.6 79 79 VRB 3 6 30.12 1020 10 16 0.00 0.00
9:54 pm 21:54 Clear 63 17.2 59 15 87 87 Calm 30.12 1020 10 16 0.00 0.00
10:54 pm 22:54 Clear 63 17.2 59 15 87 87 Calm 30.11 1020 10 16 0.00 0.00
11:54 pm 23:54 Clear 59 15 56 13.3 90 90 Calm 30.10 1019 10 16 0.00 0.00

Powered by AerisWeather